Regional Weather Roundup
Issued by NWS

Home | Current Version | Previous Version | Text Only | Print | Product List | Glossary On
Versions: 1 2 3 4 5 6 7 8 9 10 11 12 13 14 15 16 17 18 19 20 21 22 23 24 25 26 27 28 29 30 31 32 33 34 35 36 37 38 39 40 41 42 43 44 45 46 47 48 49 50
000
ASUS43 KMKX 050311
RWRWI

WISCONSIN REGIONAL WEATHER ROUNDUP
NATIONAL WEATHER SERVICE MILWAUKEE/SULLIVAN WI
1000 PM CDT FRI SEP 04 2015

NOTE: "FAIR" INDICATES FEW OR NO CLOUDS BELOW 12,000 FEET WITH NO
SIGNIFICANT WEATHER AND/OR OBSTRUCTIONS TO VISIBILITY.

WIZ001-002-006>008-014>016-023>028-050400-
NORTHWEST WISCONSIN

CITY           SKY/WX    TMP DP  RH WIND       PRES   REMARKS
SUPERIOR ARPT  PTCLDY    60  58  92 E5        29.99R
ASHLAND        CLEAR     62  62 100 CALM      29.98S
HAYWARD        CLEAR     74  65  73 S9        30.00S
SIREN          CLEAR     76  70  82 SE5       29.97R
CUMBERLAND     CLEAR     72  68  88 SE7       30.00R
RICE LAKE      CLEAR     74  68  82 SE10      30.01R
CHETEK         CLEAR     73  69  87 SE6       30.00R
LADYSMITH      PTCLDY    72  66  82 SE5       30.04R
EAU CLAIRE     CLEAR     75  69  81 SE8       29.98R
MENOMONIE      CLEAR     75  72  89 E6        29.98S
NEW RICHMOND   MOCLDY    76  70  82 SE7       29.96S
OSCEOLA        PTCLDY    78  71  80 SE8       29.97S HX  80
$$

WIZ003>005-009-010-017-018-050400-
NORTH CENTRAL WISCONSIN

CITY           SKY/WX    TMP DP  RH WIND       PRES   REMARKS
MANITOWISH WTR CLEAR     69  67  92 SE6       30.06S
ARBOR VITAE    CLEAR     72  68  87 S6        30.07S
WOODRUFF       CLEAR     72  68  87 S6        30.07S
RHINELANDER    CLEAR     68  65  90 S3        30.09R
EAGLE RIVER    CLEAR     68  64  89 S3        30.08R
LAND O LAKES   CLEAR     69  65  88 S6        30.09R
PHILLIPS       PTCLDY    71  67  87 SE5       30.04S
TOMAHAWK       CLEAR     68  64  89 SE3       30.07F
MEDFORD        CLEAR     69  66  93 SE3       30.06R
MERRILL        CLEAR     69  67  93 SE5       30.08S
$$

WIZ029-030-035-036-043>047-050400-
CENTRAL WISCONSIN

CITY           SKY/WX    TMP DP  RH WIND       PRES   REMARKS
WAUSAU         CLEAR     70  66  87 E6        30.05R
MOSINEE        CLEAR     68  68 100 CALM      30.07S
MARSHFIELD     PTCLDY    70  64  81 SE7       30.05S
STEVENS POINT  PTCLDY    65  64  96 E3        30.06S FOG
WAUPACA        CLEAR     68  67  98 CALM      30.06S FOG
WAUTOMA        CLEAR     67  67 100 CALM      30.06S
WISC RAPIDS    PTCLDY    70  65  84 SE6       30.06S
CAMP DOUGLAS   CLEAR     72  72 100 SE9       30.03R
$$

WIZ011>013-019>022-031-037>040-048>050-050400-
NORTHEAST WISCONSIN

CITY           SKY/WX    TMP DP  RH WIND       PRES   REMARKS
ANTIGO         PTCLDY    65  65  97 SE6       30.09S
SHAWANO        NOT AVBL
OCONTO         PTCLDY    63  63 100 CALM      30.06S
STURGEON BAY   CLOUDY    68  64  88 NE3       30.09R
GREEN BAY      PTCLDY    67  64  90 CALM      30.07S
MANITOWOC      FOG       66  65  96 MISG      30.07S VSB 1/2
APPLETON       CLOUDY    70  64  83 VRB5      30.05S
CLINTONVILLE   PTCLDY    66  64  94 CALM      30.06S
OSHKOSH        PTCLDY    67  64  90 SE5       30.05S
$$

WIZ032>034-041-042-053>061-050400-
SOUTHWEST WISCONSIN

CITY           SKY/WX    TMP DP  RH WIND       PRES   REMARKS
LA CROSSE      CLEAR     77  73  87 E9        29.98R
SPARTA         CLEAR     74  68  80 SE6       30.02S
VIROQUA        PTCLDY    75  74  96 SE8       30.03S
BOSCOBEL       CLEAR     74  73  97 CALM      30.00S FOG
PRAIRIE DU CHI CLEAR     75  70  83 CALM      29.99S
PLATTEVILLE    CLEAR     76  73  91 SE7       30.02F
$$

WIZ056-057-062-063-064-067-068-050400-
SOUTH CENTRAL WISCONSIN

CITY           SKY/WX    TMP DP  RH WIND       PRES   REMARKS
REEDSBURG      CLEAR     73  69  89 E3        30.04R
BARABOO/DELLS  CLEAR     71  67  87 E6        30.05R
LONE ROCK      CLEAR     75  71  87 E7        30.02S
MINERAL POINT  PTCLDY    77  72  83 SE3       30.04S
MADISON        PTCLDY    73  68  84 E9        30.04R
MIDDLETON      PTCLDY    75  71  87 E6        30.05R
WATERTOWN      MOCLDY    68  68 100 E3        30.06R
MONROE         PTCLDY    73  72  94 E7        30.04S
JANESVILLE     CLEAR     70  68  94 E8        30.05R
$$

WIZ051-052-058>065-066-070>072-050400-
SOUTHEAST WISCONSIN

CITY           SKY/WX    TMP DP  RH WIND       PRES   REMARKS
MILWAUKEE      FOG       66  64  93 SE3       30.06S VSB 3/4
WAUKESHA       CLEAR     64  63  94 CALM      30.08S
MILWAUKEE/TIMM CLEAR     66  61  82 CALM      30.07S
RACINE         CLOUDY    68  65  90 SE3       30.08S
BURLINGTON     PTCLDY    65  64  96 E3        30.07S
KENOSHA        CLOUDY    69  66  90 SE5       30.07S
FOND DU LAC    PTCLDY    67  66  97 SE3       30.06S
SHEBOYGAN      FOG       64  63  96 NE3       30.07S VSB 1/4
WEST BEND      CLOUDY    64  61  88 CALM      30.07S FOG
JUNEAU         PTCLDY    68  66  92 E6        30.07S
$$

LSZ147-162-050400-
LAKE SUPERIOR

STATION/POSITION TIME  TEMP    WIND        PRES    WAVE
                       AIR SEA DIR/SP/G            HT/PER
                 (UTC) (F)     (DEG/KT/KT) (MB)    (FT/S)
W MID LAKE BUOY  0250   63 58  110/ 10/ 12 1015.7R   2/ 4
DEVILS ISLAND    0300   70     140/  7/  7 1014.8R
PORT WING        0240   54     290/  4/  4 1015.2R
SAXON HARBOR     0240   69        CALM     1014.6F
$$

LMZ867-665-643>646-050400-
LAKE MICHIGAN

STATION/POSITION TIME  TEMP    WIND        PRES    WAVE
                       AIR SEA DIR/SP/G            HT/PER
                 (UTC) (F)     (DEG/KT/KT) (MB)    (FT/S)
CHAMBERS ISLAND  0200   67      30/  2/  4 1017.9S
S GREEN BAY BUOY 0300   67 67   40/  4/  4 1019.4R
N MID LAKE BUOY  0250   68 67  330/  2/  4 1017.8R   1
NORTHPORT PIER   0200   68      CALM  / 16 1017.9R
SISTER BAY       0241   68        CALM       N/A
ALGOMA LAKESHORE 0114             CALM       N/A
KEWAUNEE LAKESHO 0200   67      30/  1/  2 1017.0R
SHEBOYGAN LAKESH 0300   61     350/  3/  4 1018.3R
PORT WASHINGTON  0200   62      50/  1/  2 1018.6R
ATWATER BUOY     0300   61 60  300/  2/  4 1019.4F
MILWAUKEE LAKESH 0210   64     290/  1/  2   N/A
S MID LAKE BUOY  0250   68 71   90/  4/  4 1017.7
KENOSHA   LAKESH 0300   67      40/  1/  2 1017.6S
$$

TC  - TEMPERATURE IN CELSIUS
VSB - VISIBILITY IN STATUTE MILES
WCI - WIND CHILL INDEX
HX  - HEAT INDEX



USA.gov is the U.S. government's official web portal to all federal, state and local government web resources and services.